Flight Track Log - Related Links

Times and Time Zones

All times are in EDT time to prevent confusion due to time zone crossing. See the SWA655 flight status page for this flight to view local times or setup timezone preferences in your user account.

Time Position Orientation Groundspeed Altitude Reporting Facility
EDT Latitude Longitude Course Direction KTS MPH feet Rate Location/Type
Wed 05:19:48 PM 37.6333 -122.3667 138° Southeast 162 186 1,300  Level Northern Cal TRACON
Wed 05:20:48 PM 37.6833 -122.3833 345° North 221 254 3,700 1,850 Climbing Northern Cal TRACON
Wed 05:21:48 PM 37.6667 -122.4333 247° West 287 330 5,000 1,522 Climbing Northern Cal TRACON
Wed 05:23:06 PM 37.5742 -122.4008 164° South 297 342 7,200 2,762 Climbing Oakland Center
Wed 05:24:57 PM 37.4075 -122.3064 156° South 337 388 13,700 3,260 Climbing Los Angeles Center
Wed 05:25:00 PM 37.2577 -121.9618 138° Southeast  Level Estimated
Wed 05:25:59 PM 37.3158 -122.2511 154° Southeast 351 404 16,600  Level Los Angeles Center
Wed 05:27:01 PM 37.2344 -122.1625 139° Southeast 386 444 18,900 2,391 Climbing Los Angeles Center
Wed 05:28:12 PM 37.1539 -122.0317 128° Southeast 401 461 21,900 2,318 Climbing Oakland Center
Wed 05:29:13 PM 37.0758 -121.9239 132° Southeast 417 480 24,000 2,115 Climbing Oakland Center
Wed 05:30:14 PM 36.9969 -121.8117 131° Southeast 429 494 26,200 2,016 Climbing Oakland Center
Wed 05:31:15 PM 36.9150 -121.7031 133° Southeast 431 496 28,100 1,672 Climbing Oakland Center
Wed 05:32:16 PM 36.8331 -121.5872 131° Southeast 443 510 29,600 1,475 Climbing Oakland Center
Wed 05:33:17 PM 36.7456 -121.4653 132° Southeast 454 522 31,100 1,610 Climbing Oakland Center
Wed 05:34:19 PM 36.6619 -121.3475 131° Southeast 454 522 32,900 1,317 Climbing Oakland Center
Wed 05:35:20 PM 36.5761 -121.2292 132° Southeast 459 528 33,800 1,279 Climbing Oakland Center
Wed 05:36:21 PM 36.4719 -121.0864 132° Southeast 464 534 35,500 1,328 Climbing Oakland Center
Wed 05:37:22 PM 36.3867 -120.9686 132° Southeast 462 532 36,500 738 Climbing Oakland Center
Wed 05:38:23 PM 36.2981 -120.8494 133° Southeast 467 537 37,000 246 Climbing Oakland Center
Wed 05:39:24 PM 36.2092 -120.7308 133° Southeast 470 541 37,000  Level Oakland Center
Wed 05:40:26 PM 36.1206 -120.6081 132° Southeast 475 547 37,000  Level Oakland Center
Wed 05:41:27 PM 36.0306 -120.4900 133° Southeast 474 545 37,000  Level Oakland Center
Wed 05:42:28 PM 35.9425 -120.3717 133° Southeast 469 540 37,000  Level Oakland Center
Wed 05:43:29 PM 35.8550 -120.2539 132° Southeast 465 535 37,000  Level Oakland Center
Wed 05:44:30 PM 35.7669 -120.1378 133° Southeast 461 531 37,000  Level Oakland Center
Wed 05:45:32 PM 35.6769 -120.0194 133° Southeast 468 539 37,000  Level Oakland Center
Wed 05:46:33 PM 35.5764 -119.9167 140° Southeast 473 544 37,000  Level Oakland Center
Wed 05:47:34 PM 35.4697 -119.8258 145° Southeast 464 534 37,000  Level Oakland Center
Wed 05:48:35 PM 35.3636 -119.7331 145° Southeast 465 535 37,000  Level Oakland Center
Wed 05:49:36 PM 35.2581 -119.6436 145° Southeast 462 532 37,000 -585 Level Oakland Center
Wed 05:50:38 PM 35.1306 -119.5336 145° Southeast 465 535 35,800 -1,366 Descending Oakland Center
Wed 05:51:39 PM 35.0264 -119.4467 146° Southeast 455 524 34,200 -2,262 Descending Oakland Center
Wed 05:52:40 PM 34.9272 -119.3594 144° Southeast 440 506 31,200 -3,000 Descending Oakland Center
Wed 05:53:41 PM 34.8250 -119.2744 146° Southeast 442 509 28,100 -3,000 Descending Oakland Center
Wed 05:53:56 PM 34.8044 -119.2572 145° Southeast 446 513 27,400 -3,039 Descending Los Angeles Center
Wed 05:54:58 PM 34.7019 -119.1697 145° Southeast 449 517 24,200 -3,048 Descending Los Angeles Center
Wed 05:56:00 PM 34.5978 -119.0831 146° Southeast 462 532 21,100 -3,145 Descending Los Angeles Center
Wed 05:57:02 PM 34.4769 -118.9828 146° Southeast 442 509 17,700 -2,806 Descending Los Angeles Center
Wed 05:58:04 PM 34.3811 -118.9019 145° Southeast 418 481 15,300 -1,742 Descending Los Angeles Center
Wed 05:59:06 PM 34.2822 -118.8539 158° South 382 440 14,100 -1,452 Descending Los Angeles Center
Wed 06:00:08 PM 34.1872 -118.8189 163° South 360 414 12,300 -1,742 Descending Los Angeles Center
Wed 06:01:10 PM 34.0808 -118.7794 163° South 360 414 10,500 -1,113 Descending Los Angeles Center
Wed 06:02:12 PM 34.0322 -118.6933 124° Southeast 293 337 10,000 -774 Descending Los Angeles Center
Wed 06:03:14 PM 34.0236 -118.6000 96° East 278 320 8,900 -1,452 Descending Los Angeles Center
Wed 06:04:16 PM 34.0147 -118.5022 96° East 272 313 7,000 -919 Descending Los Angeles Center
Wed 06:05:18 PM 34.0164 -118.4186 89° East 265 305 7,000 -629 Level Los Angeles Center
Wed 06:06:20 PM 34.0272 -118.3306 82° East 263 303 5,700 -1,016 Descending Los Angeles Center
Wed 06:07:22 PM 34.0375 -118.2478 81° East 254 292 4,900 -774 Descending Los Angeles Center
Wed 06:08:24 PM 34.0411 -118.1811 86° East 210 242 4,100 -794 Descending Los Angeles Center
Wed 06:09:38 PM 34.0019 -118.1953 197° South 188 216 3,100 -750 Descending Los Angeles Center
Wed 06:10:40 PM 33.9664 -118.2611 237° Southwest 174 200 2,400 -726 Descending Los Angeles Center
Wed 06:11:42 PM 33.9617 -118.3097 263° West 156 180 1,600 -677 Descending Los Angeles Center
Wed 06:12:44 PM 33.9578 -118.3506 263° West 139 160 1,000 -581 Descending Los Angeles Center
Wed 06:13:46 PM 33.9544 -118.3897 264° West 126 145 400 -581 Descending Los Angeles Center
Wed 06:15:00 PM 33.9333 -118.4000 250° West  Level FlightAware Approximate
Wed 06:22:00 PM 33.9425 -118.4081 250° West  Level Estimated
Wed 06:23:00 PM 33.9425 -118.4081 250° West  Level Estimated

Login

Don't have an account? Register now (free) for customized features, flight alerts, and more!